Regional Weather Roundup
Issued by NWS

Home | Current Version | Previous Version | Graphics & Text | Print | Product List | Glossary Off
Versions: 1 2 3 4 5 6 7 8 9 10 11 12 13 14 15 16 17 18 19 20 21 22 23 24 25 26 27 28 29 30 31 32 33 34 35 36 37 38 39 40 41 42 43 44 45 46 47 48 49 50

000
ASUS43 KDMX 272308
RWRIA

WEATHER ROUNDUP FOR IOWA
NATIONAL WEATHER SERVICE DES MOINES IA
600 PM CDT FRI MAY 27 2016

NOTE: "FAIR" INDICATES FEW OR NO CLOUDS BELOW 12,000 FEET WITH NO
SIGNIFICANT WEATHER AND/OR OBSTRUCTIONS TO VISIBILITY.

* - THESE STATIONS ARE NOT NWS STATIONS...THUS NOT UNDER NWS
QUALITY CONTROL.  THEY ALSO DO NOT REPORT WEATHER SUCH
AS PRECIPITATION OR FOG.

IAZ001>003-012>014-020>022-031>034-043>046-280000-
   NORTHWEST IOWA

CITY           SKY/WX    TMP DP  RH WIND       PRES   REMARKS
CARROLL *      SUNNY     75  63  64 S8        29.73S
CHEROKEE *     MOSUNNY   73  59  60 S3        29.71S
DENISON *      MOSUNNY   77  59  53 S7        29.70S
LE MARS *      SUNNY     75  59  57 CALM      29.71S
ORANGE CITY *  MOSUNNY   75  57  53 CALM      29.71F
SHELDON *      PTSUNNY   77  57  50 VRB7      29.70S
SIOUX CITY     SUNNY     78  59  51 CALM      29.70R
SPENCER        CLOUDY    78  55  44 CALM      29.71F
STORM LAKE *   SUNNY     75  55  50 N5        29.72F
$$

IAZ055>058-069>071-079>083-090>094-280000-
   SOUTHWEST IOWA

CITY           SKY/WX    TMP DP  RH WIND       PRES   REMARKS
ATLANTIC *     CLOUDY    72  64  78 NE7       29.70F
AUDUBON *      RAIN      73  64  73 E5        29.74F
CLARINDA *       N/A     73  64  73 MISG      29.72S
COUNCIL BLFS * SUNNY     75  61  60 E8G15     29.69F
CRESTON *      SUNNY     73  63  68 NE10      29.73F
HARLAN  *      MOSUNNY   75  59  57 E8        29.73F
LAMONI         CLOUDY    73  65  75 E3        29.72F
RED OAK *      SUNNY     72  64  78 NE7       29.68F
SHENANDOAH *   SUNNY     73  66  78 E8        29.71R
$$

IAZ047>049-059>061-072>074-084-280000-
   CENTRAL IOWA

CITY           SKY/WX    TMP DP  RH WIND       PRES   REMARKS
AMES           MOSUNNY   74  61  63 W3        29.74R
ANKENY *       MOSUNNY   75  64  69 NW7       29.73S
BOONE *        MOSUNNY   73  61  64 SW3       29.74R
CHARITON *     MOSUNNY   75  64  69 NW5       29.73F
DES MOINES     PTSUNNY   76  61  59 NW6       29.73S
GRINNELL*      MOSUNNY   75  63  64 W6        29.74S
KNOXVILLE *    MOSUNNY   75  63  64 N7        29.71F
MARSHALLTOWN   MOSUNNY   73  64  73 W7        29.73R
NEWTON *       MOSUNNY   75  66  73 NW9       29.73S
PERRY *          N/A     75  63  64 CALM      29.73F
$$

IAZ004>006-015-016-023>025-035-036-280000-
   NORTH CENTRAL IOWA

CITY           SKY/WX    TMP DP  RH WIND       PRES   REMARKS
ALGONA *       PTSUNNY   75  59  57 E7        29.71F
CLARION *      MOSUNNY   75  63  64 CALM      29.73F
ESTHERVILLE    MOSUNNY   76  58  53 NW13      29.71F
FORT DODGE *   MOSUNNY   75  59  57 CALM      29.73S
MASON CITY     SUNNY     74  63  68 CALM      29.74S
FOREST CITY *  PTSUNNY   72  61  68 NE5       29.72F
WEBSTER CITY * SUNNY     75  61  60 CALM      29.72S
IOWA FALLS *     N/A     75  63  64 W6        29.75S
$$

IAZ007>011-017>019-026>030-037>042-050>054-066-280000-
   NORTHEAST IOWA

CITY           SKY/WX    TMP DP  RH WIND       PRES   REMARKS
CEDAR RAPIDS   PTSUNNY   79  67  66 SW8       29.71S HX  81
CHARLES CITY * PTSUNNY   72  66  83 NW7       29.74S
CLINTON *      PTSUNNY   76  69  79 S13       29.75F
DECORAH *      CLOUDY    70  70 100 CALM      29.72F
DUBUQUE        PTSUNNY   74  67  78 S15       29.74F
MONTICELLO *   PTSUNNY   79  66  65 S13G21    29.72S HX  81
OELWEIN *      CLOUDY    73  68  83 SW7       29.74S
WATERLOO       MOSUNNY   74  64  71 W8        29.72S
$$

IAZ064-065-067-068-078-280000-
   EAST CENTRAL IOWA

CITY           SKY/WX    TMP DP  RH WIND       PRES   REMARKS
DAVENPORT      MOSUNNY   78  68  71 S17       29.75F HX  80
IOWA CITY      PTSUNNY   79  68  69 S15       29.72F HX  81
MT. PLEASANT * SUNNY     84  70  61 S15       29.72F HX  88
MUSCATINE *    PTSUNNY   81  68  65 S13       29.72F HX  83
QUAD CITIES    MOSUNNY   79  67  66 S13       29.74F HX  81
$$

IAZ062-063-075>077-085>089-095>099-280000-
   SOUTHEAST IOWA

CITY           SKY/WX    TMP DP  RH WIND       PRES   REMARKS
BURLINGTON     MOSUNNY   77  69  76 S9        29.73F
FAIRFIELD *      N/A    N/A N/A N/A MISG        N/A
FORT MADISON * SUNNY     79  70  73 S9        29.74F HX  81
KEOKUK *       SUNNY     79  68  69 S9G15     29.72F HX  81
OSKALOOSA *      N/A     81  64  57 NW14      29.71F HX  82
OTTUMWA        CLOUDY    73  67  81 NW10      29.71F
WASHINGTON *   PTSUNNY   81  81 100 S12       29.72F HX  91
$$

ABBREVIATIONS USED IN REMARKS
   TC - TEMPERATURES IN CELSIUS
  WCI - WIND CHILL INDEX
   HX - HEAT INDEX
  VSB - VISIBILITY
$$





USA.gov is the U.S. government's official web portal to all federal, state and local government web resources and services.